Tabellarische Ansicht des 18.6.2022


Die einzelnen Werte des Tages

Uhrzeit Temperatur Luftdruck Luftfeuchte Wind Hi-Wind Taupunkt THW Index Wind Chill Heat Index Solar- strahlung Regen

00:00

17.4 C

1015.3 hpa

70 %

1.6 km/h aus 113

4.8 km/h aus SE

11.9 C

17.3 C

17.4 C

17.3 C

0 W/m

0.00 mm

00:05

17.4 C

1015.3 hpa

70 %

1.6 km/h aus 115

4.8 km/h aus SE

11.9 C

17.2 C

17.4 C

17.2 C

0 W/m

0.00 mm

00:10

17.3 C

1015.3 hpa

70 %

0.0 km/h aus 117

4.8 km/h aus SE

11.8 C

17.1 C

17.3 C

17.1 C

0 W/m

0.00 mm

00:15

17.3 C

1015.2 hpa

70 %

1.6 km/h aus 116

6.4 km/h aus SE

11.8 C

17.1 C

17.3 C

17.1 C

0 W/m

0.00 mm

00:20

17.2 C

1015.2 hpa

71 %

1.6 km/h aus 114

8.0 km/h aus SE

11.9 C

17.1 C

17.2 C

17.1 C

0 W/m

0.00 mm

00:25

17.2 C

1015.2 hpa

71 %

1.6 km/h aus 114

9.7 km/h aus SE

11.9 C

17.0 C

17.2 C

17.0 C

0 W/m

0.00 mm

00:30

17.2 C

1015.0 hpa

71 %

3.2 km/h aus 117

9.7 km/h aus SE

11.9 C

17.0 C

17.2 C

17.0 C

0 W/m

0.00 mm

00:35

17.2 C

1015.0 hpa

71 %

0.0 km/h aus 117

4.8 km/h aus SE

11.9 C

17.0 C

17.2 C

17.0 C

0 W/m

0.00 mm

00:40

17.1 C

1015.0 hpa

70 %

1.6 km/h aus 117

9.7 km/h aus SE

11.6 C

16.9 C

17.1 C

16.9 C

0 W/m

0.00 mm

00:45

17.1 C

1014.9 hpa

70 %

0.0 km/h aus 114

1.6 km/h aus SE

11.6 C

16.9 C

17.1 C

16.9 C

0 W/m

0.00 mm

00:50

17.1 C

1014.9 hpa

71 %

0.0 km/h aus 115

0.0 km/h aus ---

11.8 C

16.9 C

17.1 C

16.9 C

0 W/m

0.00 mm

00:55

17.1 C

1014.9 hpa

71 %

0.0 km/h aus 116

0.0 km/h aus ---

11.8 C

16.9 C

17.1 C

16.9 C

0 W/m

0.00 mm

01:00

17.1 C

1014.8 hpa

72 %

0.0 km/h aus 117

0.0 km/h aus ---

12.0 C

16.9 C

17.1 C

16.9 C

0 W/m

0.00 mm

01:05

17.1 C

1014.8 hpa

72 %

0.0 km/h aus 116

0.0 km/h aus ---

12.0 C

16.9 C

17.1 C

16.9 C

0 W/m

0.00 mm

01:10

17.1 C

1014.8 hpa

72 %

0.0 km/h aus 114

0.0 km/h aus ---

12.0 C

16.9 C

17.1 C

16.9 C

0 W/m

0.00 mm

01:15

17.0 C

1014.7 hpa

72 %

0.0 km/h aus 115

0.0 km/h aus ---

11.9 C

16.8 C

17.0 C

16.8 C

0 W/m

0.00 mm

01:20

16.9 C

1014.7 hpa

72 %

0.0 km/h aus 116

0.0 km/h aus ---

11.9 C

16.8 C

16.9 C

16.8 C

0 W/m

0.00 mm

01:25

16.9 C

1014.7 hpa

72 %

0.0 km/h aus 117

0.0 km/h aus ---

11.8 C

16.7 C

16.9 C

16.7 C

0 W/m

0.00 mm

01:30

16.8 C

1014.4 hpa

72 %

0.0 km/h aus 115

0.0 km/h aus ---

11.8 C

16.7 C

16.8 C

16.7 C

0 W/m

0.00 mm

01:35

16.8 C

1014.4 hpa

72 %

0.0 km/h aus 116

0.0 km/h aus ---

11.7 C

16.6 C

16.8 C

16.6 C

0 W/m

0.00 mm

01:40

16.7 C

1014.4 hpa

72 %

0.0 km/h aus 117

0.0 km/h aus ---

11.6 C

16.4 C

16.7 C

16.4 C

0 W/m

0.00 mm

01:45

16.6 C

1014.2 hpa

72 %

0.0 km/h aus 117

0.0 km/h aus ---

11.5 C

16.3 C

16.6 C

16.3 C

0 W/m

0.00 mm

01:50

16.4 C

1014.2 hpa

72 %

0.0 km/h aus 117

3.2 km/h aus SE

11.4 C

16.2 C

16.4 C

16.2 C

0 W/m

0.00 mm

01:55

16.3 C

1014.2 hpa

72 %

0.0 km/h aus 115

3.2 km/h aus SE

11.3 C

16.1 C

16.3 C

16.1 C

0 W/m

0.00 mm

02:00

16.2 C

1014.2 hpa

72 %

3.2 km/h aus 116

4.8 km/h aus SE

11.2 C

15.9 C

16.2 C

15.9 C

0 W/m

0.00 mm

02:05

16.1 C

1014.2 hpa

72 %

1.6 km/h aus 116

4.8 km/h aus SE

11.0 C

15.8 C

16.1 C

15.8 C

0 W/m

0.00 mm

02:10

16.0 C

1014.2 hpa

72 %

3.2 km/h aus 117

4.8 km/h aus SE

11.0 C

15.7 C

16.0 C

15.7 C

0 W/m

0.00 mm

02:15

15.9 C

1014.0 hpa

73 %

0.0 km/h aus 116

3.2 km/h aus SE

11.1 C

15.7 C

15.9 C

15.7 C

0 W/m

0.00 mm

02:20

15.8 C

1014.0 hpa

73 %

0.0 km/h aus 114

0.0 km/h aus ---

10.9 C

15.5 C

15.8 C

15.5 C

0 W/m

0.00 mm

02:25

15.7 C

1014.0 hpa

73 %

0.0 km/h aus 116

4.8 km/h aus SE

10.9 C

15.4 C

15.7 C

15.4 C

0 W/m

0.00 mm

02:30

15.6 C

1013.9 hpa

74 %

0.0 km/h aus 117

4.8 km/h aus SE

11.0 C

15.4 C

15.6 C

15.4 C

0 W/m

0.00 mm

02:35

15.6 C

1013.9 hpa

74 %

0.0 km/h aus 117

6.4 km/h aus SE

10.9 C

15.3 C

15.6 C

15.3 C

0 W/m

0.00 mm

02:40

15.5 C

1013.9 hpa

75 %

0.0 km/h aus 117

6.4 km/h aus SE

11.1 C

15.3 C

15.5 C

15.3 C

0 W/m

0.00 mm

02:45

15.4 C

1013.8 hpa

75 %

3.2 km/h aus 114

8.0 km/h aus SE

11.0 C

15.2 C

15.4 C

15.2 C

0 W/m

0.00 mm

02:50

15.4 C

1013.8 hpa

75 %

6.4 km/h aus 117

9.7 km/h aus SSE

11.0 C

15.2 C

15.4 C

15.2 C

0 W/m

0.00 mm

02:55

15.4 C

1013.8 hpa

76 %

6.4 km/h aus 117

9.7 km/h aus SSE

11.2 C

15.2 C

15.4 C

15.2 C

0 W/m

0.00 mm

03:00

15.4 C

1013.7 hpa

76 %

8.0 km/h aus 117

9.7 km/h aus SSE

11.2 C

15.1 C

15.3 C

15.2 C

0 W/m

0.00 mm

03:05

15.5 C

1013.7 hpa

76 %

6.4 km/h aus 116

11.3 km/h aus S

11.3 C

15.3 C

15.5 C

15.3 C

0 W/m

0.00 mm

03:10

15.6 C

1013.7 hpa

75 %

8.0 km/h aus 114

16.1 km/h aus S

11.2 C

15.4 C

15.6 C

15.4 C

0 W/m

0.00 mm

03:15

15.8 C

1013.4 hpa

75 %

9.7 km/h aus 117

17.7 km/h aus S

11.4 C

15.4 C

15.6 C

15.6 C

0 W/m

0.00 mm

03:20

16.0 C

1013.4 hpa

75 %

8.0 km/h aus 117

16.1 km/h aus S

11.6 C

15.8 C

16.0 C

15.8 C

0 W/m

0.00 mm

03:25

16.3 C

1013.4 hpa

74 %

8.0 km/h aus 117

16.1 km/h aus S

11.6 C

16.1 C

16.3 C

16.1 C

0 W/m

0.00 mm

03:30

16.5 C

1013.2 hpa

73 %

9.7 km/h aus 115

16.1 km/h aus S

11.6 C

16.3 C

16.4 C

16.3 C

0 W/m

0.00 mm

03:35

16.8 C

1013.2 hpa

72 %

9.7 km/h aus 115

19.3 km/h aus S

11.7 C

16.6 C

16.8 C

16.6 C

0 W/m

0.00 mm

03:40

17.1 C

1013.2 hpa

71 %

8.0 km/h aus 117

14.5 km/h aus S

11.8 C

16.9 C

17.1 C

16.9 C

0 W/m

0.00 mm

03:45

17.3 C

1013.2 hpa

70 %

8.0 km/h aus 118

12.9 km/h aus S

11.8 C

17.1 C

17.3 C

17.1 C

0 W/m

0.00 mm

03:50

17.5 C

1013.2 hpa

69 %

8.0 km/h aus 117

16.1 km/h aus S

11.7 C

17.3 C

17.5 C

17.3 C

0 W/m

0.00 mm

03:55

17.7 C

1013.2 hpa

68 %

8.0 km/h aus 114

16.1 km/h aus S

11.7 C

17.5 C

17.7 C

17.5 C

0 W/m

0.00 mm

04:00

17.8 C

1013.1 hpa

68 %

8.0 km/h aus 115

14.5 km/h aus S

11.8 C

17.6 C

17.8 C

17.6 C

0 W/m

0.00 mm

04:05

17.9 C

1013.1 hpa

68 %

8.0 km/h aus 116

11.3 km/h aus S

11.9 C

17.7 C

17.9 C

17.7 C

0 W/m

0.00 mm

04:10

17.9 C

1013.1 hpa

67 %

9.7 km/h aus 116

14.5 km/h aus S

11.7 C

17.8 C

17.9 C

17.8 C

0 W/m

0.00 mm

04:15

18.0 C

1012.8 hpa

67 %

8.0 km/h aus 116

16.1 km/h aus S

11.8 C

17.8 C

18.0 C

17.8 C

0 W/m

0.00 mm

04:20

18.1 C

1012.8 hpa

67 %

8.0 km/h aus 115

12.9 km/h aus S

11.8 C

17.9 C

18.1 C

17.9 C

0 W/m

0.00 mm

04:25

18.1 C

1012.8 hpa

66 %

9.7 km/h aus 116

17.7 km/h aus S

11.7 C

17.9 C

18.1 C

17.9 C

0 W/m

0.00 mm

04:30

18.2 C

1012.8 hpa

66 %

8.0 km/h aus 117

12.9 km/h aus S

11.7 C

18.0 C

18.2 C

18.0 C

0 W/m

0.00 mm

04:35

18.2 C

1012.8 hpa

66 %

8.0 km/h aus 117

12.9 km/h aus SSW

11.7 C

18.0 C

18.2 C

18.0 C

0 W/m

0.00 mm

04:40

18.2 C

1012.8 hpa

66 %

6.4 km/h aus 114

11.3 km/h aus SSW

11.7 C

18.0 C

18.2 C

18.0 C

0 W/m

0.00 mm

04:45

18.2 C

1012.7 hpa

66 %

8.0 km/h aus 117

11.3 km/h aus SSW

11.7 C

18.0 C

18.2 C

18.0 C

0 W/m

0.00 mm

04:50

18.2 C

1012.7 hpa

66 %

8.0 km/h aus 116

16.1 km/h aus SSW

11.8 C

18.1 C

18.2 C

18.1 C

3 W/m

0.00 mm

04:55

18.2 C

1012.7 hpa

66 %

8.0 km/h aus 117

11.3 km/h aus SSW

11.8 C

18.1 C

18.2 C

18.1 C

5 W/m

0.00 mm

05:00

18.2 C

1012.7 hpa

66 %

9.7 km/h aus 116

16.1 km/h aus S

11.7 C

18.0 C

18.2 C

18.0 C

7 W/m

0.00 mm

05:05

18.2 C

1012.7 hpa

66 %

9.7 km/h aus 114

17.7 km/h aus S

11.7 C

18.0 C

18.2 C

18.0 C

10 W/m

0.00 mm

05:10

18.2 C

1012.7 hpa

67 %

9.7 km/h aus 116

14.5 km/h aus S

11.9 C

18.1 C

18.2 C

18.1 C

12 W/m

0.00 mm

05:15

18.2 C

1012.7 hpa

67 %

8.0 km/h aus 117

14.5 km/h aus SSW

12.0 C

18.1 C

18.2 C

18.1 C

15 W/m

0.00 mm

05:20

18.2 C

1012.7 hpa

67 %

8.0 km/h aus 116

11.3 km/h aus SSW

12.0 C

18.1 C

18.2 C

18.1 C

17 W/m

0.00 mm

05:25

18.2 C

1012.7 hpa

67 %

6.4 km/h aus 115

9.7 km/h aus SSW

12.0 C

18.1 C

18.2 C

18.1 C

20 W/m

0.00 mm

05:30

18.2 C

1012.7 hpa

67 %

6.4 km/h aus 115

11.3 km/h aus SSW

12.0 C

18.1 C

18.2 C

18.1 C

23 W/m

0.00 mm

05:35

18.3 C

1012.7 hpa

68 %

8.0 km/h aus 117

9.7 km/h aus SSW

12.3 C

18.2 C

18.3 C

18.2 C

26 W/m

0.00 mm

05:40

18.3 C

1012.7 hpa

68 %

6.4 km/h aus 117

11.3 km/h aus SSW

12.3 C

18.2 C

18.3 C

18.2 C

29 W/m

0.00 mm

05:45

18.3 C

1012.7 hpa

68 %

6.4 km/h aus 117

11.3 km/h aus SSW

12.3 C

18.2 C

18.3 C

18.2 C

32 W/m

0.00 mm

05:50

18.3 C

1012.7 hpa

68 %

8.0 km/h aus 115

14.5 km/h aus SSW

12.3 C

18.2 C

18.3 C

18.2 C

35 W/m

0.00 mm

05:55

18.3 C

1012.7 hpa

68 %

8.0 km/h aus 115

17.7 km/h aus S

12.3 C

18.2 C

18.3 C

18.2 C

39 W/m

0.00 mm

06:00

18.3 C

1012.9 hpa

69 %

6.4 km/h aus 116

11.3 km/h aus S

12.5 C

18.2 C

18.3 C

18.2 C

41 W/m

0.00 mm

06:05

18.3 C

1012.9 hpa

69 %

8.0 km/h aus 116

12.9 km/h aus S

12.5 C

18.3 C

18.3 C

18.3 C

45 W/m

0.00 mm

06:10

18.3 C

1012.9 hpa

69 %

8.0 km/h aus 116

17.7 km/h aus S

12.5 C

18.3 C

18.3 C

18.3 C

66 W/m

0.00 mm

06:15

18.4 C

1012.9 hpa

69 %

9.7 km/h aus 115

17.7 km/h aus SSW

12.7 C

18.4 C

18.4 C

18.4 C

84 W/m

0.00 mm

06:20

18.6 C

1012.9 hpa

69 %

9.7 km/h aus 116

17.7 km/h aus S

12.8 C

18.6 C

18.6 C

18.6 C

96 W/m

0.00 mm

06:25

18.7 C

1012.9 hpa

68 %

9.7 km/h aus 117

20.9 km/h aus S

12.7 C

18.7 C

18.7 C

18.7 C

106 W/m

0.00 mm

06:30

18.9 C

1013.0 hpa

68 %

8.0 km/h aus 115

16.1 km/h aus SSW

12.9 C

19.0 C

18.9 C

19.0 C

119 W/m

0.00 mm

06:35

19.2 C

1013.0 hpa

67 %

3.2 km/h aus 114

11.3 km/h aus SW

12.9 C

19.2 C

19.2 C

19.2 C

130 W/m

0.00 mm

06:40

19.4 C

1013.0 hpa

66 %

3.2 km/h aus 116

8.0 km/h aus SSW

12.9 C

19.5 C

19.4 C

19.5 C

142 W/m

0.00 mm

06:45

19.7 C

1012.9 hpa

66 %

3.2 km/h aus 116

11.3 km/h aus SSW

13.2 C

19.8 C

19.7 C

19.8 C

154 W/m

0.00 mm

06:50

20.0 C

1012.9 hpa

66 %

4.8 km/h aus 117

9.7 km/h aus SSW

13.5 C

20.2 C

20.0 C

20.2 C

168 W/m

0.00 mm

06:55

20.3 C

1012.9 hpa

66 %

4.8 km/h aus 116

11.3 km/h aus SSW

13.8 C

20.4 C

20.3 C

20.4 C

182 W/m

0.00 mm

07:00

20.7 C

1013.0 hpa

64 %

6.4 km/h aus 115

16.1 km/h aus SW

13.6 C

20.6 C

20.7 C

20.6 C

196 W/m

0.00 mm

07:05

21.0 C

1013.0 hpa

65 %

8.0 km/h aus 116

16.1 km/h aus SSW

14.2 C

20.8 C

21.0 C

20.8 C

210 W/m

0.00 mm

07:10

21.3 C

1013.0 hpa

64 %

6.4 km/h aus 116

11.3 km/h aus SSW

14.2 C

21.1 C

21.3 C

21.1 C

221 W/m

0.00 mm

07:15

21.5 C

1012.9 hpa

63 %

6.4 km/h aus 116

16.1 km/h aus SSW

14.2 C

21.3 C

21.5 C

21.3 C

233 W/m

0.00 mm

07:20

21.7 C

1012.9 hpa

63 %

4.8 km/h aus 114

9.7 km/h aus SW

14.4 C

21.6 C

21.7 C

21.6 C

245 W/m

0.00 mm

07:25

22.0 C

1012.9 hpa

62 %

8.0 km/h aus 117

17.7 km/h aus SSW

14.4 C

21.9 C

22.0 C

21.9 C

257 W/m

0.00 mm

07:30

22.3 C

1013.0 hpa

61 %

9.7 km/h aus 117

16.1 km/h aus SSW

14.4 C

22.3 C

22.3 C

22.3 C

269 W/m

0.00 mm

07:35

22.4 C

1013.0 hpa

60 %

8.0 km/h aus 116

19.3 km/h aus SSW

14.3 C

22.5 C

22.4 C

22.5 C

280 W/m

0.00 mm

07:40

22.7 C

1013.0 hpa

59 %

9.7 km/h aus 114

17.7 km/h aus SW

14.2 C

22.8 C

22.7 C

22.8 C

293 W/m

0.00 mm

07:45

22.9 C

1012.9 hpa

59 %

9.7 km/h aus 116

20.9 km/h aus S

14.5 C

23.1 C

22.9 C

23.1 C

305 W/m

0.00 mm

07:50

23.1 C

1012.9 hpa

59 %

9.7 km/h aus 116

19.3 km/h aus S

14.6 C

23.3 C

23.1 C

23.3 C

315 W/m

0.00 mm

07:55

23.3 C

1012.9 hpa

59 %

8.0 km/h aus 114

14.5 km/h aus S

14.8 C

23.6 C

23.3 C

23.6 C

328 W/m

0.00 mm

08:00

23.5 C

1012.7 hpa

59 %

6.4 km/h aus 116

16.1 km/h aus SSW

15.0 C

23.9 C

23.5 C

23.9 C

341 W/m

0.00 mm

08:05

23.7 C

1012.7 hpa

58 %

4.8 km/h aus 115

19.3 km/h aus SSW

15.0 C

24.1 C

23.7 C

24.1 C

355 W/m

0.00 mm

08:10

23.9 C

1012.7 hpa

58 %

6.4 km/h aus 117

19.3 km/h aus SW

15.2 C

24.3 C

23.9 C

24.3 C

367 W/m

0.00 mm

08:15

24.2 C

1012.7 hpa

57 %

6.4 km/h aus 117

17.7 km/h aus SSW

15.1 C

24.5 C

24.2 C

24.5 C

379 W/m

0.00 mm

08:20

24.4 C

1012.7 hpa

56 %

4.8 km/h aus 115

16.1 km/h aus SSW

15.0 C

24.6 C

24.4 C

24.6 C

390 W/m

0.00 mm

08:25

24.6 C

1012.7 hpa

56 %

6.4 km/h aus 114

11.3 km/h aus SSW

15.2 C

24.8 C

24.6 C

24.8 C

400 W/m

0.00 mm

08:30

24.8 C

1012.7 hpa

56 %

6.4 km/h aus 116

11.3 km/h aus SW

15.4 C

25.0 C

24.8 C

25.0 C

412 W/m

0.00 mm

08:35

25.0 C

1012.7 hpa

56 %

3.2 km/h aus 116

8.0 km/h aus SW

15.6 C

25.2 C

25.0 C

25.2 C

422 W/m

0.00 mm

08:40

25.2 C

1012.7 hpa

55 %

6.4 km/h aus 116

17.7 km/h aus S

15.5 C

25.4 C

25.2 C

25.4 C

433 W/m

0.00 mm

08:45

25.3 C

1012.7 hpa

54 %

9.7 km/h aus 113

17.7 km/h aus SW

15.3 C

25.4 C

25.3 C

25.4 C

446 W/m

0.00 mm

08:50

25.3 C

1012.7 hpa

54 %

8.0 km/h aus 116

17.7 km/h aus SSW

15.4 C

25.5 C

25.3 C

25.5 C

456 W/m

0.00 mm

08:55

25.5 C

1012.7 hpa

55 %

6.4 km/h aus 117

16.1 km/h aus S

15.8 C

25.8 C

25.5 C

25.8 C

463 W/m

0.00 mm

09:00

25.7 C

1012.7 hpa

55 %

4.8 km/h aus 118

11.3 km/h aus WSW

16.0 C

26.0 C

25.7 C

26.0 C

471 W/m

0.00 mm

09:05

25.9 C

1012.7 hpa

54 %

8.0 km/h aus 115

14.5 km/h aus SSW

15.9 C

26.2 C

25.9 C

26.2 C

480 W/m

0.00 mm

09:10

26.0 C

1012.7 hpa

53 %

8.0 km/h aus 114

17.7 km/h aus SSW

15.7 C

26.2 C

26.0 C

26.2 C

488 W/m

0.00 mm

09:15

25.6 C

1012.7 hpa

56 %

4.8 km/h aus 117

16.1 km/h aus S

16.2 C

25.9 C

25.6 C

25.9 C

497 W/m

0.00 mm

09:20

25.7 C

1012.7 hpa

56 %

6.4 km/h aus 117

12.9 km/h aus SSW

16.3 C

26.1 C

25.7 C

26.1 C

505 W/m

0.00 mm

09:25

25.8 C

1012.7 hpa

56 %

8.0 km/h aus 117

19.3 km/h aus S

16.3 C

26.1 C

25.8 C

26.1 C

511 W/m

0.00 mm

09:30

26.2 C

1012.6 hpa

55 %

8.0 km/h aus 114

17.7 km/h aus S

16.4 C

26.5 C

26.2 C

26.5 C

518 W/m

0.00 mm

09:35

26.2 C

1012.6 hpa

57 %

9.7 km/h aus 116

19.3 km/h aus S

17.0 C

26.6 C

26.2 C

26.6 C

522 W/m

0.00 mm

09:40

26.3 C

1012.6 hpa

55 %

11.3 km/h aus 117

22.5 km/h aus S

16.6 C

26.7 C

26.3 C

26.7 C

528 W/m

0.00 mm

09:45

26.4 C

1012.6 hpa

55 %

9.7 km/h aus 117

20.9 km/h aus SSE

16.7 C

26.8 C

26.4 C

26.8 C

532 W/m

0.00 mm

09:50

26.8 C

1012.6 hpa

53 %

8.0 km/h aus 115

19.3 km/h aus S

16.4 C

27.1 C

26.8 C

27.1 C

538 W/m

0.00 mm

09:55

26.8 C

1012.6 hpa

55 %

4.8 km/h aus 115

16.1 km/h aus S

17.0 C

27.2 C

26.8 C

27.2 C

540 W/m

0.00 mm

10:00

27.0 C

1012.6 hpa

53 %

8.0 km/h aus 117

19.3 km/h aus SSW

16.6 C

27.3 C

27.0 C

27.3 C

543 W/m

0.00 mm

10:05

26.9 C

1012.6 hpa

53 %

8.0 km/h aus 116

17.7 km/h aus SW

16.6 C

27.2 C

26.9 C

27.2 C

545 W/m

0.00 mm

10:10

26.9 C

1012.6 hpa

54 %

8.0 km/h aus 115

17.7 km/h aus SW

16.8 C

27.3 C

26.9 C

27.3 C

553 W/m

0.00 mm

10:15

27.2 C

1012.6 hpa

52 %

8.0 km/h aus 114

17.7 km/h aus SSW

16.5 C

27.5 C

27.2 C

27.5 C

557 W/m

0.00 mm

10:20

27.3 C

1012.6 hpa

52 %

9.7 km/h aus 117

20.9 km/h aus S

16.6 C

27.6 C

27.3 C

27.6 C

558 W/m

0.00 mm

10:25

27.1 C

1012.6 hpa

52 %

11.3 km/h aus 117

17.7 km/h aus SW

16.4 C

27.4 C

27.1 C

27.4 C

562 W/m

0.00 mm

10:30

27.4 C

1012.6 hpa

54 %

6.4 km/h aus 116

14.5 km/h aus WSW

17.3 C

27.9 C

27.4 C

27.9 C

566 W/m

0.00 mm

10:35

27.8 C

1012.6 hpa

52 %

6.4 km/h aus 114

16.1 km/h aus S

17.1 C

28.4 C

27.8 C

28.4 C

568 W/m

0.00 mm

10:40

27.7 C

1012.6 hpa

53 %

9.7 km/h aus 116

20.9 km/h aus SSW

17.3 C

28.3 C

27.7 C

28.3 C

569 W/m

0.00 mm

10:45

27.9 C

1012.5 hpa

53 %

6.4 km/h aus 117

12.9 km/h aus WSW

17.4 C

28.6 C

27.9 C

28.6 C

571 W/m

0.00 mm

10:50

28.3 C

1012.5 hpa

51 %

6.4 km/h aus 117

17.7 km/h aus W

17.2 C

29.0 C

28.3 C

29.0 C

573 W/m

0.00 mm

10:55

28.1 C

1012.5 hpa

51 %

9.7 km/h aus 114

19.3 km/h aus W

17.0 C

28.7 C

28.1 C

28.7 C

575 W/m

0.00 mm

11:00

28.3 C

1012.5 hpa

51 %

9.7 km/h aus 116

17.7 km/h aus W

17.2 C

29.1 C

28.3 C

29.1 C

577 W/m

0.00 mm

11:05

28.2 C

1012.5 hpa

52 %

9.7 km/h aus 116

19.3 km/h aus SSW

17.4 C

28.9 C

28.2 C

28.9 C

580 W/m

0.00 mm

11:10

28.4 C

1012.5 hpa

51 %

11.3 km/h aus 118

22.5 km/h aus SW

17.3 C

29.2 C

28.4 C

29.2 C

578 W/m

0.00 mm

11:15

28.5 C

1012.5 hpa

51 %

9.7 km/h aus 116

22.5 km/h aus WSW

17.4 C

29.3 C

28.5 C

29.3 C

580 W/m

0.00 mm

11:20

28.5 C

1012.5 hpa

51 %

9.7 km/h aus 114

19.3 km/h aus WSW

17.4 C

29.3 C

28.5 C

29.3 C

584 W/m

0.00 mm

11:25

28.4 C

1012.5 hpa

50 %

9.7 km/h aus 117

20.9 km/h aus WSW

17.0 C

29.2 C

28.4 C

29.2 C

583 W/m

0.00 mm

11:30

28.8 C

1012.5 hpa

50 %

6.4 km/h aus 117

19.3 km/h aus SSW

17.4 C

29.8 C

28.8 C

29.8 C

583 W/m

0.00 mm

11:35

28.8 C

1012.5 hpa

51 %

6.4 km/h aus 116

16.1 km/h aus SW

17.7 C

29.9 C

28.8 C

29.9 C

586 W/m

0.00 mm

11:40

29.3 C

1012.5 hpa

50 %

6.4 km/h aus 114

11.3 km/h aus WSW

17.8 C

30.3 C

29.3 C

30.3 C

587 W/m

0.00 mm

11:45

29.1 C

1012.5 hpa

50 %

8.0 km/h aus 115

19.3 km/h aus W

17.6 C

30.1 C

29.1 C

30.1 C

586 W/m

0.00 mm

11:50

29.0 C

1012.5 hpa

50 %

8.0 km/h aus 117

19.3 km/h aus WSW

17.5 C

30.0 C

29.0 C

30.0 C

592 W/m

0.00 mm

11:55

28.9 C

1012.5 hpa

50 %

9.7 km/h aus 117

24.1 km/h aus SSW

17.5 C

29.9 C

28.9 C

29.9 C

594 W/m

0.00 mm

12:00

29.3 C

1012.3 hpa

49 %

9.7 km/h aus 116

20.9 km/h aus SSW

17.5 C

30.2 C

29.3 C

30.2 C

592 W/m

0.00 mm

12:05

29.3 C

1012.3 hpa

49 %

9.7 km/h aus 114

22.5 km/h aus WSW

17.5 C

30.2 C

29.3 C

30.2 C

594 W/m

0.00 mm

12:10

29.4 C

1012.3 hpa

51 %

3.2 km/h aus 118

9.7 km/h aus W

18.2 C

30.6 C

29.4 C

30.6 C

594 W/m

0.00 mm

12:15

29.8 C

1012.2 hpa

49 %

8.0 km/h aus 117

20.9 km/h aus SW

17.9 C

30.8 C

29.8 C

30.8 C

587 W/m

0.00 mm

12:20

29.9 C

1012.2 hpa

47 %

8.0 km/h aus 117

22.5 km/h aus W

17.4 C

30.8 C

29.9 C

30.8 C

586 W/m

0.00 mm

12:25

29.7 C

1012.2 hpa

48 %

6.4 km/h aus 114

19.3 km/h aus SW

17.5 C

30.6 C

29.7 C

30.6 C

589 W/m

0.00 mm

12:30

29.8 C

1012.1 hpa

47 %

8.0 km/h aus 116

22.5 km/h aus WSW

17.3 C

30.6 C

29.8 C

30.6 C

591 W/m

0.00 mm

12:35

29.9 C

1012.1 hpa

50 %

6.4 km/h aus 116

17.7 km/h aus WSW

18.3 C

31.1 C

29.9 C

31.1 C

577 W/m

0.00 mm

12:40

29.8 C

1012.1 hpa

47 %

8.0 km/h aus 116

19.3 km/h aus SW

17.3 C

30.7 C

29.8 C

30.7 C

591 W/m

0.00 mm

12:45

29.7 C

1012.2 hpa

48 %

8.0 km/h aus 115

17.7 km/h aus WSW

17.5 C

30.6 C

29.7 C

30.6 C

590 W/m

0.00 mm

12:50

29.8 C

1012.2 hpa

48 %

6.4 km/h aus 115

14.5 km/h aus S

17.6 C

30.8 C

29.8 C

30.8 C

587 W/m

0.00 mm

12:55

29.4 C

1012.2 hpa

48 %

11.3 km/h aus 116

20.9 km/h aus SW

17.3 C

30.3 C

29.4 C

30.3 C

587 W/m

0.00 mm

13:00

29.7 C

1012.1 hpa

49 %

11.3 km/h aus 117

22.5 km/h aus SSW

17.9 C

30.7 C

29.7 C

30.7 C

589 W/m

0.00 mm

13:05

29.8 C

1012.1 hpa

49 %

8.0 km/h aus 116

19.3 km/h aus WSW

17.9 C

30.8 C

29.8 C

30.8 C

592 W/m

0.00 mm

13:10

29.9 C

1012.1 hpa

48 %

4.8 km/h aus 113

14.5 km/h aus W

17.7 C

30.9 C

29.9 C

30.9 C

591 W/m

0.00 mm

13:15

30.3 C

1012.0 hpa

47 %

11.3 km/h aus 118

20.9 km/h aus S

17.8 C

31.4 C

30.3 C

31.4 C

589 W/m

0.00 mm

13:20

30.2 C

1012.0 hpa

47 %

11.3 km/h aus 116

22.5 km/h aus WSW

17.6 C

31.1 C

30.2 C

31.1 C

592 W/m

0.00 mm

13:25

30.4 C

1012.0 hpa

49 %

6.4 km/h aus 117

12.9 km/h aus W

18.5 C

31.8 C

30.4 C

31.8 C

591 W/m

0.00 mm

13:30

30.2 C

1011.8 hpa

49 %

3.2 km/h aus 115

11.3 km/h aus W

18.3 C

31.5 C

30.2 C

31.5 C

592 W/m

0.00 mm

13:35

30.2 C

1011.8 hpa

49 %

4.8 km/h aus 114

14.5 km/h aus W

18.3 C

31.4 C

30.2 C

31.4 C

587 W/m

0.00 mm

13:40

30.4 C

1011.8 hpa

47 %

6.4 km/h aus 115

16.1 km/h aus W

17.9 C

31.6 C

30.4 C

31.6 C

580 W/m

0.00 mm

13:45

30.4 C

1011.7 hpa

45 %

8.0 km/h aus 117

14.5 km/h aus SSW

17.2 C

31.3 C

30.4 C

31.3 C

579 W/m

0.00 mm

13:50

30.7 C

1011.7 hpa

45 %

12.9 km/h aus 117

22.5 km/h aus S

17.4 C

31.5 C

30.6 C

31.6 C

579 W/m

0.00 mm

13:55

30.8 C

1011.7 hpa

46 %

9.7 km/h aus 114

19.3 km/h aus S

17.8 C

31.9 C

30.8 C

31.9 C

579 W/m

0.00 mm

14:00

30.8 C

1011.6 hpa

46 %

3.2 km/h aus 117

11.3 km/h aus SSW

17.9 C

31.9 C

30.8 C

31.9 C

581 W/m

0.00 mm

14:05

30.8 C

1011.6 hpa

45 %

6.4 km/h aus 117

14.5 km/h aus NW

17.5 C

31.7 C

30.8 C

31.7 C

584 W/m

0.00 mm

14:10

30.6 C

1011.6 hpa

47 %

6.4 km/h aus 116

25.7 km/h aus SSW

18.0 C

31.8 C

30.6 C

31.8 C

589 W/m

0.00 mm

14:15

30.9 C

1011.6 hpa

45 %

8.0 km/h aus 115

27.4 km/h aus WNW

17.6 C

31.8 C

30.9 C

31.8 C

582 W/m

0.00 mm

14:20

30.7 C

1011.6 hpa

45 %

3.2 km/h aus 117

9.7 km/h aus WNW

17.4 C

31.6 C

30.7 C

31.6 C

579 W/m

0.00 mm

14:25

30.8 C

1011.6 hpa

46 %

1.6 km/h aus 116

8.0 km/h aus WNW

17.9 C

31.9 C

30.8 C

31.9 C

577 W/m

0.00 mm

14:30

30.8 C

1011.2 hpa

44 %

8.0 km/h aus 117

16.1 km/h aus SW

17.2 C

31.6 C

30.8 C

31.6 C

573 W/m

0.00 mm

14:35

30.5 C

1011.2 hpa

44 %

6.4 km/h aus 116

16.1 km/h aus S

16.9 C

31.2 C

30.5 C

31.2 C

575 W/m

0.00 mm

14:40

30.9 C

1011.2 hpa

46 %

6.4 km/h aus 114

16.1 km/h aus SW

17.9 C

32.0 C

30.9 C

32.0 C

571 W/m

0.00 mm

14:45

31.3 C

1011.1 hpa

44 %

3.2 km/h aus 117

11.3 km/h aus SW

17.6 C

32.2 C

31.3 C

32.2 C

567 W/m

0.00 mm

14:50

31.2 C

1011.1 hpa

44 %

4.8 km/h aus 117

9.7 km/h aus WSW

17.5 C

32.1 C

31.2 C

32.1 C

566 W/m

0.00 mm

14:55

31.2 C

1011.1 hpa

45 %

3.2 km/h aus 115

9.7 km/h aus SW

17.8 C

32.2 C

31.2 C

32.2 C

562 W/m

0.00 mm

15:00

30.8 C

1011.0 hpa

42 %

6.4 km/h aus 112

19.3 km/h aus SW

16.4 C

31.3 C

30.8 C

31.3 C

559 W/m

0.00 mm

15:05

31.1 C

1011.0 hpa

45 %

4.8 km/h aus 117

20.9 km/h aus WNW

17.8 C

32.1 C

31.1 C

32.1 C

565 W/m

0.00 mm

15:10

31.1 C

1011.0 hpa

44 %

6.4 km/h aus 117

16.1 km/h aus WNW

17.4 C

31.9 C

31.1 C

31.9 C

564 W/m

0.00 mm

15:15

31.2 C

1011.0 hpa

44 %

6.4 km/h aus 117

16.1 km/h aus NW

17.5 C

32.1 C

31.2 C

32.1 C

564 W/m

0.00 mm

15:20

31.3 C

1011.0 hpa

46 %

1.6 km/h aus 114

8.0 km/h aus W

18.3 C

32.6 C

31.3 C

32.6 C

564 W/m

0.00 mm

15:25

31.2 C

1011.0 hpa

44 %

4.8 km/h aus 117

17.7 km/h aus W

17.5 C

32.1 C

31.2 C

32.1 C

560 W/m

0.00 mm

15:30

31.2 C

1011.0 hpa

42 %

8.0 km/h aus 117

19.3 km/h aus WNW

16.8 C

31.7 C

31.2 C

31.7 C

556 W/m

0.00 mm

15:35

31.1 C

1011.0 hpa

43 %

4.8 km/h aus 117

14.5 km/h aus SW

17.1 C

31.7 C

31.1 C

31.7 C

555 W/m

0.00 mm

15:40

31.2 C

1011.0 hpa

43 %

4.8 km/h aus 115

14.5 km/h aus SW

17.1 C

31.8 C

31.2 C

31.8 C

553 W/m

0.00 mm

15:45

31.4 C

1010.9 hpa

43 %

4.8 km/h aus 116

11.3 km/h aus WNW

17.4 C

32.4 C

31.4 C

32.4 C

548 W/m

0.00 mm

15:50

31.3 C

1010.9 hpa

42 %

4.8 km/h aus 115

16.1 km/h aus SSW

16.8 C

31.8 C

31.3 C

31.8 C

546 W/m

0.00 mm

15:55

31.3 C

1010.9 hpa

44 %

1.6 km/h aus 116

6.4 km/h aus WNW

17.6 C

32.3 C

31.3 C

32.3 C

539 W/m

0.00 mm

16:00

31.7 C

1010.8 hpa

43 %

4.8 km/h aus 116

16.1 km/h aus W

17.6 C

32.8 C

31.7 C

32.8 C

540 W/m

0.00 mm

16:05

31.8 C

1010.8 hpa

41 %

8.0 km/h aus 115

19.3 km/h aus WSW

17.0 C

32.7 C

31.8 C

32.7 C

535 W/m

0.00 mm

16:10

31.6 C

1010.8 hpa

41 %

4.8 km/h aus 117

14.5 km/h aus WSW

16.8 C

32.3 C

31.6 C

32.3 C

536 W/m

0.00 mm

16:15

31.6 C

1010.6 hpa

42 %

3.2 km/h aus 116

14.5 km/h aus W

17.1 C

32.6 C

31.6 C

32.6 C

531 W/m

0.00 mm

16:20

31.7 C

1010.6 hpa

43 %

4.8 km/h aus 116

16.1 km/h aus WNW

17.6 C

32.8 C

31.7 C

32.8 C

465 W/m

0.00 mm

16:25

31.6 C

1010.6 hpa

43 %

1.6 km/h aus 114

8.0 km/h aus W

17.5 C

32.6 C

31.6 C

32.6 C

526 W/m

0.00 mm

16:30

31.4 C

1010.5 hpa

43 %

8.0 km/h aus 116

16.1 km/h aus SW

17.3 C

32.3 C

31.4 C

32.3 C

518 W/m

0.00 mm

16:35

31.5 C

1010.5 hpa

42 %

6.4 km/h aus 117

14.5 km/h aus WSW

17.0 C

32.3 C

31.5 C

32.3 C

514 W/m

0.00 mm

16:40

31.6 C

1010.5 hpa

42 %

6.4 km/h aus 116

17.7 km/h aus WSW

17.1 C

32.4 C

31.6 C

32.4 C

508 W/m

0.00 mm

16:45

31.5 C

1010.2 hpa

42 %

3.2 km/h aus 114

16.1 km/h aus WNW

17.0 C

32.3 C

31.5 C

32.3 C

504 W/m

0.00 mm

16:50

31.2 C

1010.2 hpa

43 %

4.8 km/h aus 116

17.7 km/h aus NW

17.2 C

31.9 C

31.2 C

31.9 C

492 W/m

0.00 mm

16:55

31.0 C

1010.2 hpa

44 %

4.8 km/h aus 117

12.9 km/h aus WSW

17.3 C

31.8 C

31.0 C

31.8 C

477 W/m

0.00 mm

17:00

31.3 C

1010.0 hpa

43 %

8.0 km/h aus 117

17.7 km/h aus W

17.3 C

32.2 C

31.3 C

32.2 C

468 W/m

0.00 mm

17:05

31.3 C

1010.0 hpa

44 %

4.8 km/h aus 115

9.7 km/h aus W

17.6 C

32.2 C

31.3 C

32.2 C

463 W/m

0.00 mm

17:10

31.2 C

1010.0 hpa

45 %

3.2 km/h aus 115

8.0 km/h aus SW

17.8 C

32.2 C

31.2 C

32.2 C

457 W/m

0.00 mm

17:15

31.1 C

1010.0 hpa

45 %

4.8 km/h aus 117

12.9 km/h aus NW

17.8 C

32.1 C

31.1 C

32.1 C

414 W/m

0.00 mm

17:20

30.8 C

1010.0 hpa

45 %

3.2 km/h aus 117

16.1 km/h aus WNW

17.5 C

31.7 C

30.8 C

31.7 C

395 W/m

0.00 mm

17:25

30.6 C

1010.0 hpa

46 %

3.2 km/h aus 115

11.3 km/h aus NW

17.6 C

31.6 C

30.6 C

31.6 C

396 W/m

0.00 mm

17:30

30.7 C

1010.0 hpa

45 %

3.2 km/h aus 114

9.7 km/h aus NW

17.4 C

31.6 C

30.7 C

31.6 C

403 W/m

0.00 mm

17:35

30.4 C

1010.0 hpa

47 %

6.4 km/h aus 117

16.1 km/h aus NW

17.8 C

31.5 C

30.4 C

31.5 C

324 W/m

0.00 mm

17:40

30.2 C

1010.0 hpa

47 %

6.4 km/h aus 117

17.7 km/h aus WNW

17.7 C

31.2 C

30.2 C

31.2 C

304 W/m

0.00 mm

17:45

30.2 C

1009.9 hpa

48 %

6.4 km/h aus 116

16.1 km/h aus NNW

17.9 C

31.3 C

30.2 C

31.3 C

294 W/m

0.00 mm

17:50

30.1 C

1009.9 hpa

47 %

4.8 km/h aus 114

11.3 km/h aus NW

17.5 C

30.9 C

30.1 C

30.9 C

304 W/m

0.00 mm

17:55

30.0 C

1009.9 hpa

47 %

6.4 km/h aus 116

16.1 km/h aus WNW

17.5 C

30.8 C

30.0 C

30.8 C

334 W/m

0.00 mm

18:00

30.1 C

1009.9 hpa

47 %

6.4 km/h aus 117

14.5 km/h aus WNW

17.5 C

30.9 C

30.1 C

30.9 C

358 W/m

0.00 mm

18:05

30.2 C

1009.9 hpa

48 %

1.6 km/h aus 116

8.0 km/h aus N

17.9 C

31.3 C

30.2 C

31.3 C

335 W/m

0.00 mm

18:10

29.9 C

1009.9 hpa

49 %

4.8 km/h aus 114

16.1 km/h aus NNE

18.0 C

30.9 C

29.9 C

30.9 C

318 W/m

0.00 mm

18:15

29.6 C

1009.9 hpa

48 %

8.0 km/h aus 117

20.9 km/h aus N

17.4 C

30.5 C

29.6 C

30.5 C

301 W/m

0.00 mm

18:20

29.5 C

1009.9 hpa

50 %

8.0 km/h aus 116

17.7 km/h aus NW

18.0 C

30.5 C

29.5 C

30.5 C

281 W/m

0.00 mm

18:25

29.3 C

1009.9 hpa

51 %

8.0 km/h aus 117

19.3 km/h aus N

18.1 C

30.4 C

29.3 C

30.4 C

317 W/m

0.00 mm

18:30

29.2 C

1010.0 hpa

50 %

11.3 km/h aus 114

19.3 km/h aus NNW

17.7 C

30.2 C

29.2 C

30.2 C

296 W/m

0.00 mm

18:35

28.9 C

1010.0 hpa

51 %

9.7 km/h aus 118

20.9 km/h aus NW

17.8 C

30.1 C

28.9 C

30.1 C

217 W/m

0.00 mm

18:40

28.7 C

1010.0 hpa

52 %

6.4 km/h aus 117

14.5 km/h aus NNW

17.9 C

29.8 C

28.7 C

29.8 C

183 W/m

0.00 mm

18:45

28.4 C

1010.0 hpa

53 %

4.8 km/h aus 116

17.7 km/h aus NNW

17.9 C

29.4 C

28.4 C

29.4 C

204 W/m

0.00 mm

18:50

28.3 C

1010.0 hpa

53 %

6.4 km/h aus 114

14.5 km/h aus N

17.8 C

29.2 C

28.3 C

29.2 C

192 W/m

0.00 mm

18:55

28.1 C

1010.0 hpa

55 %

6.4 km/h aus 116

20.9 km/h aus NNW

18.2 C

29.0 C

28.1 C

29.0 C

151 W/m

0.00 mm

19:00

27.8 C

1010.0 hpa

55 %

8.0 km/h aus 117

19.3 km/h aus NNW

17.9 C

28.6 C

27.8 C

28.6 C

155 W/m

0.00 mm

19:05

27.4 C

1010.0 hpa

58 %

12.9 km/h aus 117

22.5 km/h aus NNW

18.4 C

28.0 C

27.2 C

28.2 C

173 W/m

0.00 mm

19:10

27.1 C

1010.0 hpa

59 %

8.0 km/h aus 115

20.9 km/h aus NNW

18.4 C

27.9 C

27.1 C

27.9 C

177 W/m

0.00 mm

19:15

26.9 C

1010.0 hpa

60 %

4.8 km/h aus 116

17.7 km/h aus NNW

18.5 C

27.8 C

26.9 C

27.8 C

180 W/m

0.00 mm

19:20

26.8 C

1010.0 hpa

61 %

8.0 km/h aus 115

20.9 km/h aus NNW

18.6 C

27.6 C

26.8 C

27.6 C

175 W/m

0.00 mm

19:25

26.7 C

1010.0 hpa

61 %

3.2 km/h aus 117

14.5 km/h aus NNW

18.5 C

27.4 C

26.7 C

27.4 C

162 W/m

0.00 mm

19:30

26.6 C

1009.9 hpa

61 %

8.0 km/h aus 115

16.1 km/h aus NW

18.4 C

27.3 C

26.6 C

27.3 C

154 W/m

0.00 mm

19:35

26.4 C

1009.9 hpa

62 %

6.4 km/h aus 116

17.7 km/h aus N

18.6 C

27.3 C

26.4 C

27.3 C

141 W/m

0.00 mm

19:40

26.3 C

1009.9 hpa

62 %

8.0 km/h aus 117

16.1 km/h aus N

18.5 C

27.1 C

26.3 C

27.1 C

125 W/m

0.00 mm

19:45

26.3 C

1009.9 hpa

62 %

6.4 km/h aus 117

19.3 km/h aus NNW

18.4 C

27.1 C

26.3 C

27.1 C

111 W/m

0.00 mm

19:50

26.2 C

1009.9 hpa

61 %

6.4 km/h aus 114

17.7 km/h aus N

18.1 C

26.9 C

26.2 C

26.9 C

102 W/m

0.00 mm

19:55

26.2 C

1009.9 hpa

61 %

3.2 km/h aus 116

14.5 km/h aus N

18.1 C

26.8 C

26.2 C

26.8 C

94 W/m

0.00 mm

20:00

26.1 C

1009.8 hpa

61 %

4.8 km/h aus 117

16.1 km/h aus NNW

17.9 C

26.7 C

26.1 C

26.7 C

87 W/m

0.00 mm

20:05

25.9 C

1009.8 hpa

62 %

4.8 km/h aus 117

16.1 km/h aus NNW

18.1 C

26.7 C

25.9 C

26.7 C

80 W/m

0.00 mm

20:10

25.9 C

1009.8 hpa

62 %

4.8 km/h aus 115

12.9 km/h aus N

18.0 C

26.6 C

25.9 C

26.6 C

74 W/m

0.00 mm

20:15

25.8 C

1009.6 hpa

62 %

4.8 km/h aus 116

14.5 km/h aus NW

17.9 C

26.4 C

25.8 C

26.4 C

69 W/m

0.00 mm

20:20

25.6 C

1009.6 hpa

62 %

4.8 km/h aus 117

16.1 km/h aus N

17.8 C

26.2 C

25.6 C

26.2 C

64 W/m

0.00 mm

20:25

25.5 C

1009.6 hpa

63 %

3.2 km/h aus 116

11.3 km/h aus N

17.9 C

26.2 C

25.5 C

26.2 C

59 W/m

0.00 mm

20:30

25.4 C

1009.5 hpa

63 %

4.8 km/h aus 115

14.5 km/h aus NNW

17.8 C

26.1 C

25.4 C

26.1 C

54 W/m

0.00 mm

20:35

25.2 C

1009.5 hpa

63 %

3.2 km/h aus 116

11.3 km/h aus NW

17.7 C

25.8 C

25.2 C

25.8 C

48 W/m

0.00 mm

20:40

25.1 C

1009.5 hpa

64 %

4.8 km/h aus 118

19.3 km/h aus N

17.8 C

25.8 C

25.1 C

25.8 C

44 W/m

0.00 mm

20:45

25.0 C

1009.6 hpa

64 %

1.6 km/h aus 117

11.3 km/h aus N

17.7 C

25.7 C

25.0 C

25.7 C

38 W/m

0.00 mm

20:50

24.9 C

1009.6 hpa

65 %

1.6 km/h aus 115

8.0 km/h aus NNW

17.9 C

25.6 C

24.9 C

25.6 C

33 W/m

0.00 mm

20:55

24.7 C

1009.6 hpa

65 %

4.8 km/h aus 115

14.5 km/h aus NNW

17.7 C

25.4 C

24.7 C

25.4 C

28 W/m

0.00 mm

21:00

24.6 C

1009.7 hpa

65 %

4.8 km/h aus 116

14.5 km/h aus NNW

17.5 C

25.2 C

24.6 C

25.2 C

23 W/m

0.00 mm

21:05

24.4 C

1009.7 hpa

66 %

3.2 km/h aus 116

16.1 km/h aus N

17.7 C

25.2 C

24.4 C

25.2 C

20 W/m

0.00 mm

21:10

24.3 C

1009.7 hpa

66 %

4.8 km/h aus 116

16.1 km/h aus NW

17.5 C

25.0 C

24.3 C

25.0 C

18 W/m

0.00 mm

21:15

24.1 C

1009.5 hpa

66 %

3.2 km/h aus 115

11.3 km/h aus NNW

17.4 C

24.9 C

24.1 C

24.9 C

15 W/m

0.00 mm

21:20

23.9 C

1009.5 hpa

66 %

1.6 km/h aus 116

14.5 km/h aus N

17.2 C

24.7 C

23.9 C

24.7 C

12 W/m

0.00 mm

21:25

23.8 C

1009.5 hpa

66 %

4.8 km/h aus 117

14.5 km/h aus N

17.0 C

24.6 C

23.8 C

24.6 C

10 W/m

0.00 mm

21:30

23.6 C

1009.5 hpa

66 %

4.8 km/h aus 116

14.5 km/h aus N

16.9 C

24.3 C

23.6 C

24.3 C

7 W/m

0.00 mm

21:35

23.4 C

1009.5 hpa

67 %

3.2 km/h aus 114

16.1 km/h aus NNE

17.0 C

24.2 C

23.4 C

24.2 C

4 W/m

0.00 mm

21:40

23.2 C

1009.5 hpa

67 %

6.4 km/h aus 118

17.7 km/h aus NNW

16.8 C

23.9 C

23.2 C

23.9 C

0 W/m

0.00 mm

21:45

23.1 C

1009.5 hpa

67 %

3.2 km/h aus 117

11.3 km/h aus NNW

16.6 C

23.7 C

23.1 C

23.7 C

0 W/m

0.00 mm

21:50

22.9 C

1009.5 hpa

68 %

3.2 km/h aus 115

14.5 km/h aus NNW

16.7 C

23.4 C

22.9 C

23.4 C

0 W/m

0.00 mm

21:55

22.8 C

1009.5 hpa

68 %

0.0 km/h aus 114

9.7 km/h aus NW

16.6 C

23.3 C

22.8 C

23.3 C

0 W/m

0.00 mm

22:00

22.7 C

1009.5 hpa

69 %

0.0 km/h aus 117

4.8 km/h aus NW

16.7 C

23.2 C

22.7 C

23.2 C

0 W/m

0.00 mm

22:05

22.5 C

1009.5 hpa

69 %

0.0 km/h aus 117

4.8 km/h aus NW

16.5 C

22.9 C

22.5 C

22.9 C

0 W/m

0.00 mm

22:10

22.4 C

1009.5 hpa

69 %

1.6 km/h aus 116

6.4 km/h aus N

16.4 C

22.8 C

22.4 C

22.8 C

0 W/m

0.00 mm

22:15

22.2 C

1009.4 hpa

70 %

1.6 km/h aus 115

4.8 km/h aus NNW

16.5 C

22.6 C

22.2 C

22.6 C

0 W/m

0.00 mm

22:20

22.1 C

1009.4 hpa

70 %

0.0 km/h aus 116

4.8 km/h aus NNW

16.4 C

22.4 C

22.1 C

22.4 C

0 W/m

0.00 mm

22:25

22.0 C

1009.4 hpa

70 %

0.0 km/h aus 117

0.0 km/h aus ---

16.3 C

22.3 C

22.0 C

22.3 C

0 W/m

0.00 mm

22:30

21.9 C

1009.1 hpa

70 %

0.0 km/h aus 116

0.0 km/h aus ---

16.2 C

22.2 C

21.9 C

22.2 C

0 W/m

0.00 mm

22:35

21.8 C

1009.1 hpa

70 %

0.0 km/h aus 114

0.0 km/h aus ---

16.1 C

22.1 C

21.8 C

22.1 C

0 W/m

0.00 mm

22:40

21.7 C

1009.1 hpa

71 %

0.0 km/h aus 116

0.0 km/h aus ---

16.2 C

22.0 C

21.7 C

22.0 C

0 W/m

0.00 mm

22:45

21.6 C

1008.9 hpa

71 %

0.0 km/h aus 117

0.0 km/h aus ---

16.1 C

21.8 C

21.6 C

21.8 C

0 W/m

0.00 mm

22:50

21.4 C

1008.9 hpa

72 %

0.0 km/h aus 117

0.0 km/h aus ---

16.2 C

21.7 C

21.4 C

21.7 C

0 W/m

0.00 mm

22:55

21.3 C

1008.9 hpa

72 %

1.6 km/h aus 115

6.4 km/h aus NW

16.0 C

21.5 C

21.3 C

21.5 C

0 W/m

0.00 mm

23:00

21.2 C

1008.9 hpa

72 %

1.6 km/h aus 116

6.4 km/h aus NNW

15.9 C

21.3 C

21.2 C

21.3 C

0 W/m

0.00 mm

23:05

21.0 C

1008.9 hpa

73 %

0.0 km/h aus 116

6.4 km/h aus N

16.0 C

21.3 C

21.0 C

21.3 C

0 W/m

0.00 mm

23:10

20.9 C

1008.9 hpa

73 %

1.6 km/h aus 117

8.0 km/h aus NNW

15.9 C

21.2 C

20.9 C

21.2 C

0 W/m

0.00 mm

23:15

20.8 C

1009.0 hpa

73 %

0.0 km/h aus 116

0.0 km/h aus ---

15.8 C

21.1 C

20.8 C

21.1 C

0 W/m

0.00 mm

23:20

20.7 C

1009.0 hpa

73 %

1.6 km/h aus 115

6.4 km/h aus N

15.7 C

21.1 C

20.7 C

21.1 C

0 W/m

0.00 mm

23:25

20.6 C

1009.0 hpa

74 %

1.6 km/h aus 117

8.0 km/h aus NNW

15.8 C

21.1 C

20.6 C

21.1 C

0 W/m

0.00 mm

23:30

20.4 C

1008.9 hpa

74 %

3.2 km/h aus 117

9.7 km/h aus NNW

15.7 C

20.9 C

20.4 C

20.9 C

0 W/m

0.00 mm

23:35

20.4 C

1008.9 hpa

74 %

1.6 km/h aus 116

6.4 km/h aus N

15.6 C

20.9 C

20.4 C

20.9 C

0 W/m

0.00 mm

23:40

20.3 C

1008.9 hpa

74 %

0.0 km/h aus 114

8.0 km/h aus NNW

15.5 C

20.8 C

20.3 C

20.8 C

0 W/m

0.00 mm

23:45

20.2 C

1008.8 hpa

74 %

1.6 km/h aus 117

8.0 km/h aus NNW

15.4 C

20.7 C

20.2 C

20.7 C

0 W/m

0.00 mm

23:50

20.2 C

1008.8 hpa

75 %

0.0 km/h aus 117

6.4 km/h aus NNW

15.6 C

20.7 C

20.2 C

20.7 C

0 W/m

0.00 mm

23:55

20.1 C

1008.8 hpa

75 %

0.0 km/h aus 117

8.0 km/h aus NW

15.5 C

20.6 C

20.1 C

20.6 C

0 W/m

0.00 mm